{"data":{"norad_id":53448,"epoch":"2026-09-20T22:48:17.796672Z","epoch_age_seconds":104659,"freshness":"FRESH","line1":"1 53448U 22098E   26263.95020598  .00212660  19155-4  62548-3 0  9992","line2":"2 53448  97.5694  43.7479 0003481 271.8939  88.1936 15.92679037229800","mean_motion":15.92679037,"eccentricity":0.0003481,"inclination_deg":97.5694,"raan_deg":43.7479,"arg_perigee_deg":271.8939,"mean_anomaly_deg":88.1936,"bstar":0.00062548,"rev_number":22980,"period_min":90.413697081894,"perigee_km":292.46651302733,"apogee_km":297.11220435825,"semimajor_km":6672.9263586928,"source":"CELESTRAK","updated_at":"2026-09-21T09:00:09.038068Z"}}